Voltar ao catálogo

DELTA 1 DEB

AtivoPO
NORAD 7958·DEBRIS·🇺🇸 United States

Lançado Jul 23, 1972 de Vandenberg Space Force Base

Loading…

Próximas Passagens (próximas 24 horas)

TLE

AtualizadoSource: Space-Track

Época: Sep 13, 2026, 23:28 UTC

1 07958U 72058CN  26256.97793175  .00000653  00000-0  29984-3 0  9999
2 07958  97.6541  86.3915 0295908 225.7546 131.8989 14.03313788718721

Acompanhe DELTA 1 DEB em tempo real com AllMySat

Download on the App Store